owner,sensor,date,latitude,longitude,vertical_datum,wind_speed,wind_to_direction,wind_speed_of_gust,qcFlag 
LUMCON,ioos:station:LUMCON:102:1,2004-03-01T00:00:00Z,29.1870,-90.6093,0.0,3.1,110.0,99.0,'11111222,11111222,11144222' 
LUMCON,ioos:station:LUMCON:102:1,2004-03-01T01:00:00Z,29.1870,-90.6093,0.0,3.6,110.0,99.0,'11111222,11111222,11144222' 
LUMCON,ioos:station:LUMCON:102:1,2004-03-01T02:00:00Z,29.1870,-90.6093,0.0,3.6,100.0,99.0,'11111222,11111222,11144222' 
LUMCON,ioos:station:LUMCON:102:1,2004-03-01T03:00:00Z,29.1870,-90.6093,0.0,4.1,120.0,99.0,'11111222,11111222,11144222' 
LUMCON,ioos:station:LUMCON:102:1,2004-03-01T04:00:00Z,29.1870,-90.6093,0.0,4.1,110.0,99.0,'11111222,11111222,11144222' 
LUMCON,ioos:station:LUMCON:102:1,2004-03-01T05:00:00Z,29.1870,-90.6093,0.0,4.6,120.0,99.0,'11111222,11111222,11144222' 
LUMCON,ioos:station:LUMCON:102:1,2004-03-01T06:00:00Z,29.1870,-90.6093,0.0,4.6,130.0,99.0,'11111222,11111222,11144222' 
LUMCON,ioos:station:LUMCON:102:1,2004-03-01T07:00:00Z,29.1870,-90.6093,0.0,4.6,140.0,99.0,'11111222,11111222,11144222' 
LUMCON,ioos:station:LUMCON:102:1,2004-03-01T08:00:00Z,29.1870,-90.6093,0.0,3.6,150.0,99.0,'11111222,11111222,11144222' 
LUMCON,ioos:station:LUMCON:102:1,2004-03-01T09:00:00Z,29.1870,-90.6093,0.0,4.6,180.0,99.0,'11111222,11111222,11144222' 
LUMCON,ioos:station:LUMCON:102:1,2004-03-01T10:00:00Z,29.1870,-90.6093,0.0,4.1,160.0,99.0,'11111222,11111222,11144222' 
LUMCON,ioos:station:LUMCON:102:1,2004-03-01T11:00:00Z,29.1870,-90.6093,0.0,4.6,130.0,99.0,'11111222,11111222,11144222' 
LUMCON,ioos:station:LUMCON:102:1,2004-03-01T12:00:00Z,29.1870,-90.6093,0.0,5.1,120.0,99.0,'11111222,11111222,11144222' 
LUMCON,ioos:station:LUMCON:102:1,2004-03-01T13:00:00Z,29.1870,-90.6093,0.0,5.1,130.0,99.0,'11111222,11111222,11144222' 
LUMCON,ioos:station:LUMCON:102:1,2004-03-01T14:00:00Z,29.1870,-90.6093,0.0,5.7,140.0,99.0,'11111222,11111222,11144222' 
LUMCON,ioos:station:LUMCON:102:1,2004-03-01T16:00:00Z,29.1870,-90.6093,0.0,5.7,160.0,99.0,'11111222,11111222,11144222' 
LUMCON,ioos:station:LUMCON:102:1,2004-03-01T17:00:00Z,29.1870,-90.6093,0.0,6.2,160.0,99.0,'11111222,11111222,11144222' 
LUMCON,ioos:station:LUMCON:102:1,2004-03-01T18:00:00Z,29.1870,-90.6093,0.0,5.7,150.0,99.0,'11111222,11111222,11144222' 
LUMCON,ioos:station:LUMCON:102:1,2004-03-01T19:00:00Z,29.1870,-90.6093,0.0,6.7,150.0,99.0,'11111222,11111222,11144222' 
LUMCON,ioos:station:LUMCON:102:1,2004-03-01T20:00:00Z,29.1870,-90.6093,0.0,5.7,130.0,99.0,'11111222,11111222,11144222' 
LUMCON,ioos:station:LUMCON:102:1,2004-03-01T21:00:00Z,29.1870,-90.6093,0.0,5.7,130.0,99.0,'11111222,11111222,11144222' 
LUMCON,ioos:station:LUMCON:102:1,2004-03-01T22:00:00Z,29.1870,-90.6093,0.0,5.7,130.0,99.0,'11111222,11111222,11144222' 
LUMCON,ioos:station:LUMCON:102:1,2004-03-01T23:00:00Z,29.1870,-90.6093,0.0,5.1,120.0,99.0,'11111222,11111222,11144222' 
LUMCON,ioos:station:LUMCON:102:1,2004-03-02T00:00:00Z,29.1870,-90.6093,0.0,5.1,130.0,99.0,'11111222,11111222,11144222' 
LUMCON,ioos:station:LUMCON:102:1,2004-03-02T01:00:00Z,29.1870,-90.6093,0.0,5.1,140.0,99.0,'11111222,11111222,11144222' 
LUMCON,ioos:station:LUMCON:102:1,2004-03-02T02:00:00Z,29.1870,-90.6093,0.0,4.1,140.0,99.0,'11111222,11111222,11144222' 
LUMCON,ioos:station:LUMCON:102:1,2004-03-02T03:00:00Z,29.1870,-90.6093,0.0,4.1,130.0,99.0,'11111222,11111222,11144222' 
LUMCON,ioos:station:LUMCON:102:1,2004-03-02T04:00:00Z,29.1870,-90.6093,0.0,4.6,140.0,99.0,'11111222,11111222,11144222' 
LUMCON,ioos:station:LUMCON:102:1,2004-03-02T05:00:00Z,29.1870,-90.6093,0.0,4.6,130.0,99.0,'11111222,11111222,11144222' 
LUMCON,ioos:station:LUMCON:102:1,2004-03-02T06:00:00Z,29.1870,-90.6093,0.0,5.1,140.0,99.0,'11111222,11111222,11144222' 
LUMCON,ioos:station:LUMCON:102:1,2004-03-02T07:00:00Z,29.1870,-90.6093,0.0,4.6,130.0,99.0,'11111222,11111222,11144222' 
LUMCON,ioos:station:LUMCON:102:1,2004-03-02T08:00:00Z,29.1870,-90.6093,0.0,4.1,130.0,99.0,'11111222,11111222,11144222' 
LUMCON,ioos:station:LUMCON:102:1,2004-03-02T09:00:00Z,29.1870,-90.6093,0.0,4.6,140.0,99.0,'11111222,11111222,11144222' 
LUMCON,ioos:station:LUMCON:102:1,2004-03-02T10:00:00Z,29.1870,-90.6093,0.0,5.1,140.0,99.0,'11111222,11111222,11144222' 
LUMCON,ioos:station:LUMCON:102:1,2004-03-02T11:00:00Z,29.1870,-90.6093,0.0,4.6,120.0,99.0,'11111222,11111222,11144222' 
LUMCON,ioos:station:LUMCON:102:1,2004-03-02T12:00:00Z,29.1870,-90.6093,0.0,3.6,120.0,99.0,'11111222,11111222,11144222' 
LUMCON,ioos:station:LUMCON:102:1,2004-03-02T13:00:00Z,29.1870,-90.6093,0.0,3.6,100.0,99.0,'11111222,11111222,11144222' 
LUMCON,ioos:station:LUMCON:102:1,2004-03-02T14:00:00Z,29.1870,-90.6093,0.0,4.1,100.0,99.0,'11111222,11111222,11144222' 
LUMCON,ioos:station:LUMCON:102:1,2004-03-02T15:00:00Z,29.1870,-90.6093,0.0,4.6,110.0,99.0,'11111222,11111222,11144222' 
LUMCON,ioos:station:LUMCON:102:1,2004-03-02T16:00:00Z,29.1870,-90.6093,0.0,4.1,110.0,99.0,'11111222,11111222,11144222' 
LUMCON,ioos:station:LUMCON:102:1,2004-03-02T17:00:00Z,29.1870,-90.6093,0.0,5.1,110.0,99.0,'11111222,11111222,11144222' 
LUMCON,ioos:station:LUMCON:102:1,2004-03-02T18:00:00Z,29.1870,-90.6093,0.0,4.6,110.0,99.0,'11111222,11111222,11144222' 
LUMCON,ioos:station:LUMCON:102:1,2004-03-02T19:00:00Z,29.1870,-90.6093,0.0,4.6,110.0,99.0,'11111222,11111222,11144222' 
LUMCON,ioos:station:LUMCON:102:1,2004-03-02T20:00:00Z,29.1870,-90.6093,0.0,4.1,110.0,99.0,'11111222,11111222,11144222' 
LUMCON,ioos:station:LUMCON:102:1,2004-03-02T21:00:00Z,29.1870,-90.6093,0.0,5.1,110.0,99.0,'11111222,11111222,11144222' 
LUMCON,ioos:station:LUMCON:102:1,2004-03-02T22:00:00Z,29.1870,-90.6093,0.0,4.6,120.0,99.0,'11111222,11111222,11144222' 
LUMCON,ioos:station:LUMCON:102:1,2004-03-02T23:00:00Z,29.1870,-90.6093,0.0,5.7,100.0,99.0,'11111222,11111222,11144222' 
LUMCON,ioos:station:LUMCON:102:1,2004-03-03T00:00:00Z,29.1870,-90.6093,0.0,5.1,100.0,99.0,'11111222,11111222,11144222' 
LUMCON,ioos:station:LUMCON:102:1,2004-03-03T01:00:00Z,29.1870,-90.6093,0.0,6.7,110.0,99.0,'11111222,11111222,11144222' 
LUMCON,ioos:station:LUMCON:102:1,2004-03-03T02:00:00Z,29.1870,-90.6093,0.0,6.7,120.0,99.0,'11111222,11111222,11144222' 
LUMCON,ioos:station:LUMCON:102:1,2004-03-03T03:00:00Z,29.1870,-90.6093,0.0,5.7,100.0,99.0,'11111222,11111222,11144222' 
LUMCON,ioos:station:LUMCON:102:1,2004-03-03T04:00:00Z,29.1870,-90.6093,0.0,6.2,100.0,99.0,'11111222,11111222,11144222' 
LUMCON,ioos:station:LUMCON:102:1,2004-03-03T05:00:00Z,29.1870,-90.6093,0.0,5.1,90.0,99.0,'11111222,11111222,11144222' 
LUMCON,ioos:station:LUMCON:102:1,2004-03-03T06:00:00Z,29.1870,-90.6093,0.0,5.7,100.0,99.0,'11111222,11111222,11144222' 
LUMCON,ioos:station:LUMCON:102:1,2004-03-03T07:00:00Z,29.1870,-90.6093,0.0,6.2,100.0,99.0,'11111222,11111222,11144222' 
LUMCON,ioos:station:LUMCON:102:1,2004-03-03T08:00:00Z,29.1870,-90.6093,0.0,6.7,110.0,99.0,'11111222,11111222,11144222' 
LUMCON,ioos:station:LUMCON:102:1,2004-03-03T09:00:00Z,29.1870,-90.6093,0.0,5.1,110.0,99.0,'11111222,11111222,11144222' 
LUMCON,ioos:station:LUMCON:102:1,2004-03-03T10:00:00Z,29.1870,-90.6093,0.0,5.7,100.0,99.0,'11111222,11111222,11144222' 
LUMCON,ioos:station:LUMCON:102:1,2004-03-03T11:00:00Z,29.1870,-90.6093,0.0,5.1,90.0,99.0,'11111222,11111222,11144222' 
LUMCON,ioos:station:LUMCON:102:1,2004-03-03T12:00:00Z,29.1870,-90.6093,0.0,5.1,100.0,99.0,'11111222,11111222,11144222' 
LUMCON,ioos:station:LUMCON:102:1,2004-03-03T13:00:00Z,29.1870,-90.6093,0.0,5.7,100.0,99.0,'11111222,11111222,11144222' 
LUMCON,ioos:station:LUMCON:102:1,2004-03-03T14:00:00Z,29.1870,-90.6093,0.0,5.7,100.0,99.0,'11111222,11111222,11144222' 
LUMCON,ioos:station:LUMCON:102:1,2004-03-03T15:00:00Z,29.1870,-90.6093,0.0,5.1,100.0,99.0,'11111222,11111222,11144222' 
LUMCON,ioos:station:LUMCON:102:1,2004-03-03T16:00:00Z,29.1870,-90.6093,0.0,6.2,100.0,99.0,'11111222,11111222,11144222' 
LUMCON,ioos:station:LUMCON:102:1,2004-03-03T17:00:00Z,29.1870,-90.6093,0.0,6.2,120.0,99.0,'11111222,11111222,11144222' 
LUMCON,ioos:station:LUMCON:102:1,2004-03-03T18:00:00Z,29.1870,-90.6093,0.0,5.1,120.0,99.0,'11111222,11111222,11144222' 
LUMCON,ioos:station:LUMCON:102:1,2004-03-03T19:00:00Z,29.1870,-90.6093,0.0,4.1,100.0,99.0,'11111222,11111222,11144222' 
LUMCON,ioos:station:LUMCON:102:1,2004-03-03T20:00:00Z,29.1870,-90.6093,0.0,4.1,100.0,99.0,'11111222,11111222,11144222' 
LUMCON,ioos:station:LUMCON:102:1,2004-03-03T21:00:00Z,29.1870,-90.6093,0.0,4.6,100.0,99.0,'11111222,11111222,11144222' 
LUMCON,ioos:station:LUMCON:102:1,2004-03-03T22:00:00Z,29.1870,-90.6093,0.0,4.6,100.0,99.0,'11111222,11111222,11144222' 
LUMCON,ioos:station:LUMCON:102:1,2004-03-03T23:00:00Z,29.1870,-90.6093,0.0,5.1,100.0,99.0,'11111222,11111222,11144222' 
LUMCON,ioos:station:LUMCON:102:1,2004-03-04T00:00:00Z,29.1870,-90.6093,0.0,5.7,100.0,99.0,'11111222,11111222,11144222' 
LUMCON,ioos:station:LUMCON:102:1,2004-03-04T13:00:00Z,29.1870,-90.6093,0.0,9.3,120.0,99.0,'11111222,11111222,11144222' 
LUMCON,ioos:station:LUMCON:102:1,2004-03-04T14:00:00Z,29.1870,-90.6093,0.0,6.7,120.0,99.0,'11111222,11111222,11144222' 
LUMCON,ioos:station:LUMCON:102:1,2004-03-04T15:00:00Z,29.1870,-90.6093,0.0,6.7,120.0,99.0,'11111222,11111222,11144222' 
LUMCON,ioos:station:LUMCON:102:1,2004-03-04T16:00:00Z,29.1870,-90.6093,0.0,7.7,120.0,99.0,'11111222,11111222,11144222' 
LUMCON,ioos:station:LUMCON:102:1,2004-03-04T17:00:00Z,29.1870,-90.6093,0.0,6.7,120.0,99.0,'11111222,11111222,11144222' 
LUMCON,ioos:station:LUMCON:102:1,2004-03-04T18:00:00Z,29.1870,-90.6093,0.0,7.2,130.0,99.0,'11111222,11111222,11144222' 
LUMCON,ioos:station:LUMCON:102:1,2004-03-04T19:00:00Z,29.1870,-90.6093,0.0,7.7,130.0,99.0,'11111222,11111222,11144222' 
LUMCON,ioos:station:LUMCON:102:1,2004-03-04T20:00:00Z,29.1870,-90.6093,0.0,7.7,130.0,99.0,'11111222,11111222,11144222' 
LUMCON,ioos:station:LUMCON:102:1,2004-03-04T21:00:00Z,29.1870,-90.6093,0.0,7.7,120.0,99.0,'11111222,11111222,11144222' 
LUMCON,ioos:station:LUMCON:102:1,2004-03-04T22:00:00Z,29.1870,-90.6093,0.0,8.2,130.0,99.0,'11111222,11111222,11144222' 
LUMCON,ioos:station:LUMCON:102:1,2004-03-04T23:00:00Z,29.1870,-90.6093,0.0,7.7,130.0,99.0,'11111222,11111222,11144222' 
LUMCON,ioos:station:LUMCON:102:1,2004-03-05T00:00:00Z,29.1870,-90.6093,0.0,7.2,120.0,99.0,'11111222,11111222,11144222' 
LUMCON,ioos:station:LUMCON:102:1,2004-03-05T01:00:00Z,29.1870,-90.6093,0.0,7.2,130.0,99.0,'11111222,11111222,11144222' 
LUMCON,ioos:station:LUMCON:102:1,2004-03-05T02:00:00Z,29.1870,-90.6093,0.0,8.8,140.0,99.0,'11111222,11111222,11144222' 
LUMCON,ioos:station:LUMCON:102:1,2004-03-05T03:00:00Z,29.1870,-90.6093,0.0,9.3,140.0,99.0,'11111222,11111222,11144222' 
LUMCON,ioos:station:LUMCON:102:1,2004-03-05T04:00:00Z,29.1870,-90.6093,0.0,9.3,140.0,99.0,'11111222,11111222,11144222' 
LUMCON,ioos:station:LUMCON:102:1,2004-03-05T05:00:00Z,29.1870,-90.6093,0.0,8.2,150.0,99.0,'11111222,11111222,11144222' 
LUMCON,ioos:station:LUMCON:102:1,2004-03-05T06:00:00Z,29.1870,-90.6093,0.0,6.2,150.0,99.0,'11111222,11111222,11144222' 
LUMCON,ioos:station:LUMCON:102:1,2004-03-05T07:00:00Z,29.1870,-90.6093,0.0,5.1,140.0,99.0,'11111222,11111222,11144222' 
LUMCON,ioos:station:LUMCON:102:1,2004-03-05T08:00:00Z,29.1870,-90.6093,0.0,5.1,130.0,99.0,'11111222,11111222,11144222' 
LUMCON,ioos:station:LUMCON:102:1,2004-03-05T09:00:00Z,29.1870,-90.6093,0.0,6.7,130.0,99.0,'11111222,11111222,11144222' 
LUMCON,ioos:station:LUMCON:102:1,2004-03-05T10:00:00Z,29.1870,-90.6093,0.0,7.2,140.0,99.0,'11111222,11111222,11144222' 
LUMCON,ioos:station:LUMCON:102:1,2004-03-05T11:00:00Z,29.1870,-90.6093,0.0,8.2,140.0,99.0,'11111222,11111222,11144222' 
LUMCON,ioos:station:LUMCON:102:1,2004-03-05T12:00:00Z,29.1870,-90.6093,0.0,7.7,140.0,99.0,'11111222,11111222,11144222' 
LUMCON,ioos:station:LUMCON:102:1,2004-03-05T13:00:00Z,29.1870,-90.6093,0.0,8.2,140.0,99.0,'11111222,11111222,11144222' 
LUMCON,ioos:station:LUMCON:102:1,2004-03-05T14:00:00Z,29.1870,-90.6093,0.0,8.2,150.0,99.0,'11111222,11111222,11144222' 
LUMCON,ioos:station:LUMCON:102:1,2004-03-05T15:00:00Z,29.1870,-90.6093,0.0,8.8,150.0,99.0,'11111222,11111222,11144222' 
LUMCON,ioos:station:LUMCON:102:1,2004-03-05T16:00:00Z,29.1870,-90.6093,0.0,8.8,150.0,99.0,'11111222,11111222,11144222' 
LUMCON,ioos:station:LUMCON:102:1,2004-03-05T17:00:00Z,29.1870,-90.6093,0.0,9.3,160.0,99.0,'11111222,11111222,11144222' 
LUMCON,ioos:station:LUMCON:102:1,2004-03-05T18:00:00Z,29.1870,-90.6093,0.0,8.2,160.0,99.0,'11111222,11111222,11144222' 
LUMCON,ioos:station:LUMCON:102:1,2004-03-05T19:00:00Z,29.1870,-90.6093,0.0,8.8,160.0,99.0,'11111222,11111222,11144222' 
LUMCON,ioos:station:LUMCON:102:1,2004-03-05T20:00:00Z,29.1870,-90.6093,0.0,8.8,160.0,99.0,'11111222,11111222,11144222' 
LUMCON,ioos:station:LUMCON:102:1,2004-03-05T21:00:00Z,29.1870,-90.6093,0.0,9.3,160.0,99.0,'11111222,11111222,11144222' 
LUMCON,ioos:station:LUMCON:102:1,2004-03-05T22:00:00Z,29.1870,-90.6093,0.0,8.8,170.0,99.0,'11111222,11111222,11144222' 
LUMCON,ioos:station:LUMCON:102:1,2004-03-05T23:00:00Z,29.1870,-90.6093,0.0,9.8,160.0,99.0,'11111222,11111222,11144222' 
LUMCON,ioos:station:LUMCON:102:1,2004-03-06T00:00:00Z,29.1870,-90.6093,0.0,9.8,160.0,99.0,'11111222,11111222,11144222' 
LUMCON,ioos:station:LUMCON:102:1,2004-03-06T01:00:00Z,29.1870,-90.6093,0.0,10.3,170.0,99.0,'11111222,11111222,11144222' 
LUMCON,ioos:station:LUMCON:102:1,2004-03-06T02:00:00Z,29.1870,-90.6093,0.0,9.8,180.0,99.0,'11111222,11111222,11144222' 
LUMCON,ioos:station:LUMCON:102:1,2004-03-06T03:00:00Z,29.1870,-90.6093,0.0,8.2,170.0,99.0,'11111222,11111222,11144222' 
LUMCON,ioos:station:LUMCON:102:1,2004-03-06T04:00:00Z,29.1870,-90.6093,0.0,7.7,180.0,99.0,'11111222,11111222,11144222' 
LUMCON,ioos:station:LUMCON:102:1,2004-03-06T05:00:00Z,29.1870,-90.6093,0.0,8.2,190.0,99.0,'11111222,11111222,11144222' 
LUMCON,ioos:station:LUMCON:102:1,2004-03-06T06:00:00Z,29.1870,-90.6093,0.0,7.7,200.0,99.0,'11111222,11111222,11144222' 
LUMCON,ioos:station:LUMCON:102:1,2004-03-06T07:00:00Z,29.1870,-90.6093,0.0,7.2,200.0,99.0,'11111222,11111222,11144222' 
LUMCON,ioos:station:LUMCON:102:1,2004-03-06T08:00:00Z,29.1870,-90.6093,0.0,6.7,210.0,99.0,'11111222,11111222,11144222' 
LUMCON,ioos:station:LUMCON:102:1,2004-03-06T09:00:00Z,29.1870,-90.6093,0.0,7.7,210.0,99.0,'11111222,11111222,11144222' 
LUMCON,ioos:station:LUMCON:102:1,2004-03-06T10:00:00Z,29.1870,-90.6093,0.0,7.2,220.0,99.0,'11111222,11111222,11144222' 
LUMCON,ioos:station:LUMCON:102:1,2004-03-06T11:00:00Z,29.1870,-90.6093,0.0,6.7,230.0,99.0,'11111222,11111222,11144222' 
LUMCON,ioos:station:LUMCON:102:1,2004-03-06T14:00:00Z,29.1870,-90.6093,0.0,4.1,300.0,99.0,'11111222,11111222,11144222' 
LUMCON,ioos:station:LUMCON:102:1,2004-03-06T15:00:00Z,29.1870,-90.6093,0.0,2.1,300.0,99.0,'11111222,11111222,11144222' 
LUMCON,ioos:station:LUMCON:102:1,2004-03-06T16:00:00Z,29.1870,-90.6093,0.0,0.0,250.0,99.0,'11111222,11111222,11144222' 
LUMCON,ioos:station:LUMCON:102:1,2004-03-06T17:00:00Z,29.1870,-90.6093,0.0,1.5,180.0,99.0,'11111222,11111222,11144222' 
LUMCON,ioos:station:LUMCON:102:1,2004-03-06T18:00:00Z,29.1870,-90.6093,0.0,2.1,170.0,99.0,'11111222,11111222,11144222' 
LUMCON,ioos:station:LUMCON:102:1,2004-03-06T19:00:00Z,29.1870,-90.6093,0.0,2.6,190.0,99.0,'11111222,11111222,11144222' 
LUMCON,ioos:station:LUMCON:102:1,2004-03-06T20:00:00Z,29.1870,-90.6093,0.0,3.6,200.0,99.0,'11111222,11111222,11144222' 
LUMCON,ioos:station:LUMCON:102:1,2004-03-06T21:00:00Z,29.1870,-90.6093,0.0,4.6,220.0,99.0,'11111222,11111222,11144222' 
LUMCON,ioos:station:LUMCON:102:1,2004-03-06T22:00:00Z,29.1870,-90.6093,0.0,5.1,210.0,99.0,'11111222,11111222,11144222' 
LUMCON,ioos:station:LUMCON:102:1,2004-03-06T23:00:00Z,29.1870,-90.6093,0.0,4.6,210.0,99.0,'11111222,11111222,11144222' 
LUMCON,ioos:station:LUMCON:102:1,2004-03-07T00:00:00Z,29.1870,-90.6093,0.0,4.6,210.0,99.0,'11111222,11111222,11144222' 
LUMCON,ioos:station:LUMCON:102:1,2004-03-07T01:00:00Z,29.1870,-90.6093,0.0,4.1,220.0,99.0,'11111222,11111222,11144222' 
LUMCON,ioos:station:LUMCON:102:1,2004-03-07T02:00:00Z,29.1870,-90.6093,0.0,4.1,230.0,99.0,'11111222,11111222,11144222' 
LUMCON,ioos:station:LUMCON:102:1,2004-03-07T03:00:00Z,29.1870,-90.6093,0.0,3.6,230.0,99.0,'11111222,11111222,11144222' 
LUMCON,ioos:station:LUMCON:102:1,2004-03-07T04:00:00Z,29.1870,-90.6093,0.0,3.1,250.0,99.0,'11111222,11111222,11144222' 
LUMCON,ioos:station:LUMCON:102:1,2004-03-07T05:00:00Z,29.1870,-90.6093,0.0,3.1,260.0,99.0,'11111222,11111222,11144222' 
LUMCON,ioos:station:LUMCON:102:1,2004-03-07T06:00:00Z,29.1870,-90.6093,0.0,3.1,260.0,99.0,'11111222,11111222,11144222' 
LUMCON,ioos:station:LUMCON:102:1,2004-03-07T07:00:00Z,29.1870,-90.6093,0.0,2.6,260.0,99.0,'11111222,11111222,11144222' 
LUMCON,ioos:station:LUMCON:102:1,2004-03-07T08:00:00Z,29.1870,-90.6093,0.0,3.1,290.0,99.0,'11111222,11111222,11144222' 
LUMCON,ioos:station:LUMCON:102:1,2004-03-07T09:00:00Z,29.1870,-90.6093,0.0,4.1,310.0,99.0,'11111222,11111222,11144222' 
LUMCON,ioos:station:LUMCON:102:1,2004-03-07T10:00:00Z,29.1870,-90.6093,0.0,4.1,300.0,99.0,'11111222,11111222,11144222' 
LUMCON,ioos:station:LUMCON:102:1,2004-03-07T11:00:00Z,29.1870,-90.6093,0.0,5.7,320.0,99.0,'11111222,11111222,11144222' 
LUMCON,ioos:station:LUMCON:102:1,2004-03-07T12:00:00Z,29.1870,-90.6093,0.0,7.7,330.0,99.0,'11111222,11111222,11144222' 
LUMCON,ioos:station:LUMCON:102:1,2004-03-07T13:00:00Z,29.1870,-90.6093,0.0,7.2,340.0,99.0,'11111222,11111222,11144222' 
LUMCON,ioos:station:LUMCON:102:1,2004-03-07T14:00:00Z,29.1870,-90.6093,0.0,7.7,0.0,99.0,'11111222,11111222,11144222' 
LUMCON,ioos:station:LUMCON:102:1,2004-03-07T15:00:00Z,29.1870,-90.6093,0.0,7.2,10.0,99.0,'11111222,11111222,11144222' 
LUMCON,ioos:station:LUMCON:102:1,2004-03-07T16:00:00Z,29.1870,-90.6093,0.0,6.2,0.0,99.0,'11111222,11111222,11144222' 
LUMCON,ioos:station:LUMCON:102:1,2004-03-07T17:00:00Z,29.1870,-90.6093,0.0,4.6,0.0,99.0,'11111222,11111222,11144222' 
LUMCON,ioos:station:LUMCON:102:1,2004-03-07T18:00:00Z,29.1870,-90.6093,0.0,4.6,10.0,99.0,'11111222,11111222,11144222' 
LUMCON,ioos:station:LUMCON:102:1,2004-03-07T19:00:00Z,29.1870,-90.6093,0.0,2.6,10.0,99.0,'11111222,11111222,11144222' 
LUMCON,ioos:station:LUMCON:102:1,2004-03-07T20:00:00Z,29.1870,-90.6093,0.0,2.1,110.0,99.0,'11111222,11111222,11144222' 
LUMCON,ioos:station:LUMCON:102:1,2004-03-07T21:00:00Z,29.1870,-90.6093,0.0,0.0,140.0,99.0,'11111222,11111222,11144222' 
LUMCON,ioos:station:LUMCON:102:1,2004-03-07T22:00:00Z,29.1870,-90.6093,0.0,2.6,210.0,99.0,'11111222,11111222,11144222' 
LUMCON,ioos:station:LUMCON:102:1,2004-03-07T23:00:00Z,29.1870,-90.6093,0.0,4.6,220.0,99.0,'11111222,11111222,11144222' 
LUMCON,ioos:station:LUMCON:102:1,2004-03-08T00:00:00Z,29.1870,-90.6093,0.0,6.2,240.0,99.0,'11111222,11111222,11144222' 
LUMCON,ioos:station:LUMCON:102:1,2004-03-08T01:00:00Z,29.1870,-90.6093,0.0,5.1,240.0,99.0,'11111222,11111222,11144222' 
LUMCON,ioos:station:LUMCON:102:1,2004-03-08T02:00:00Z,29.1870,-90.6093,0.0,5.1,240.0,99.0,'11111222,11111222,11144222' 
LUMCON,ioos:station:LUMCON:102:1,2004-03-08T03:00:00Z,29.1870,-90.6093,0.0,5.1,260.0,99.0,'11111222,11111222,11144222' 
LUMCON,ioos:station:LUMCON:102:1,2004-03-08T04:00:00Z,29.1870,-90.6093,0.0,4.6,280.0,99.0,'11111222,11111222,11144222' 
LUMCON,ioos:station:LUMCON:102:1,2004-03-08T05:00:00Z,29.1870,-90.6093,0.0,6.7,310.0,99.0,'11111222,11111222,11144222' 
LUMCON,ioos:station:LUMCON:102:1,2004-03-08T14:00:00Z,29.1870,-90.6093,0.0,11.3,30.0,99.0,'11111222,11111222,11144222' 
LUMCON,ioos:station:LUMCON:102:1,2004-03-08T15:00:00Z,29.1870,-90.6093,0.0,10.8,30.0,99.0,'11111222,11111222,11144222' 
LUMCON,ioos:station:LUMCON:102:1,2004-03-08T16:00:00Z,29.1870,-90.6093,0.0,8.8,40.0,99.0,'11111222,11111222,11144222' 
LUMCON,ioos:station:LUMCON:102:1,2004-03-08T17:00:00Z,29.1870,-90.6093,0.0,6.7,30.0,99.0,'11111222,11111222,11144222' 
LUMCON,ioos:station:LUMCON:102:1,2004-03-08T18:00:00Z,29.1870,-90.6093,0.0,5.7,20.0,99.0,'11111222,11111222,11144222' 
LUMCON,ioos:station:LUMCON:102:1,2004-03-08T19:00:00Z,29.1870,-90.6093,0.0,4.1,30.0,99.0,'11111222,11111222,11144222' 
LUMCON,ioos:station:LUMCON:102:1,2004-03-08T20:00:00Z,29.1870,-90.6093,0.0,2.1,30.0,99.0,'11111222,11111222,11144222' 
LUMCON,ioos:station:LUMCON:102:1,2004-03-08T21:00:00Z,29.1870,-90.6093,0.0,3.1,10.0,99.0,'11111222,11111222,11144222' 
LUMCON,ioos:station:LUMCON:102:1,2004-03-08T22:00:00Z,29.1870,-90.6093,0.0,1.0,330.0,99.0,'11111222,11111222,11144222' 
LUMCON,ioos:station:LUMCON:102:1,2004-03-08T23:00:00Z,29.1870,-90.6093,0.0,0.5,350.0,99.0,'11111222,11111222,11144222' 
LUMCON,ioos:station:LUMCON:102:1,2004-03-09T00:00:00Z,29.1870,-90.6093,0.0,4.6,230.0,99.0,'11111222,11111222,11144222' 
LUMCON,ioos:station:LUMCON:102:1,2004-03-09T01:00:00Z,29.1870,-90.6093,0.0,5.1,240.0,99.0,'11111222,11111222,11144222' 
LUMCON,ioos:station:LUMCON:102:1,2004-03-09T02:00:00Z,29.1870,-90.6093,0.0,4.1,280.0,99.0,'11111222,11111222,11144222' 
LUMCON,ioos:station:LUMCON:102:1,2004-03-09T03:00:00Z,29.1870,-90.6093,0.0,5.7,280.0,99.0,'11111222,11111222,11144222' 
LUMCON,ioos:station:LUMCON:102:1,2004-03-09T04:00:00Z,29.1870,-90.6093,0.0,6.7,280.0,99.0,'11111222,11111222,11144222' 
LUMCON,ioos:station:LUMCON:102:1,2004-03-09T05:00:00Z,29.1870,-90.6093,0.0,7.2,290.0,99.0,'11111222,11111222,11144222' 
LUMCON,ioos:station:LUMCON:102:1,2004-03-09T06:00:00Z,29.1870,-90.6093,0.0,7.2,290.0,99.0,'11111222,11111222,11144222' 
LUMCON,ioos:station:LUMCON:102:1,2004-03-09T07:00:00Z,29.1870,-90.6093,0.0,6.2,300.0,99.0,'11111222,11111222,11144222' 
LUMCON,ioos:station:LUMCON:102:1,2004-03-09T08:00:00Z,29.1870,-90.6093,0.0,5.1,300.0,99.0,'11111222,11111222,11144222' 
LUMCON,ioos:station:LUMCON:102:1,2004-03-09T09:00:00Z,29.1870,-90.6093,0.0,6.2,300.0,99.0,'11111222,11111222,11144222' 
LUMCON,ioos:station:LUMCON:102:1,2004-03-09T10:00:00Z,29.1870,-90.6093,0.0,6.2,300.0,99.0,'11111222,11111222,11144222' 
LUMCON,ioos:station:LUMCON:102:1,2004-03-09T11:00:00Z,29.1870,-90.6093,0.0,6.2,310.0,99.0,'11111222,11111222,11144222' 
LUMCON,ioos:station:LUMCON:102:1,2004-03-09T12:00:00Z,29.1870,-90.6093,0.0,4.6,310.0,99.0,'11111222,11111222,11144222' 
LUMCON,ioos:station:LUMCON:102:1,2004-03-09T13:00:00Z,29.1870,-90.6093,0.0,5.7,300.0,99.0,'11111222,11111222,11144222' 
LUMCON,ioos:station:LUMCON:102:1,2004-03-09T14:00:00Z,29.1870,-90.6093,0.0,5.7,290.0,99.0,'11111222,11111222,11144222' 
LUMCON,ioos:station:LUMCON:102:1,2004-03-09T15:00:00Z,29.1870,-90.6093,0.0,5.7,290.0,99.0,'11111222,11111222,11144222' 
LUMCON,ioos:station:LUMCON:102:1,2004-03-09T16:00:00Z,29.1870,-90.6093,0.0,6.7,280.0,99.0,'11111222,11111222,11144222' 
LUMCON,ioos:station:LUMCON:102:1,2004-03-09T17:00:00Z,29.1870,-90.6093,0.0,9.3,280.0,99.0,'11111222,11111222,11144222' 
LUMCON,ioos:station:LUMCON:102:1,2004-03-09T18:00:00Z,29.1870,-90.6093,0.0,9.8,280.0,99.0,'11111222,11111222,11144222' 
LUMCON,ioos:station:LUMCON:102:1,2004-03-09T19:00:00Z,29.1870,-90.6093,0.0,9.3,270.0,99.0,'11111222,11111222,11144222' 
LUMCON,ioos:station:LUMCON:102:1,2004-03-09T20:00:00Z,29.1870,-90.6093,0.0,10.8,280.0,99.0,'11111222,11111222,11144222' 
LUMCON,ioos:station:LUMCON:102:1,2004-03-09T21:00:00Z,29.1870,-90.6093,0.0,9.8,280.0,99.0,'11111222,11111222,11144222' 
LUMCON,ioos:station:LUMCON:102:1,2004-03-09T22:00:00Z,29.1870,-90.6093,0.0,9.8,280.0,99.0,'11111222,11111222,11144222' 
LUMCON,ioos:station:LUMCON:102:1,2004-03-09T23:00:00Z,29.1870,-90.6093,0.0,9.8,280.0,99.0,'11111222,11111222,11144222' 
LUMCON,ioos:station:LUMCON:102:1,2004-03-10T00:00:00Z,29.1870,-90.6093,0.0,8.8,280.0,99.0,'11111222,11111222,11144222' 
LUMCON,ioos:station:LUMCON:102:1,2004-03-10T01:00:00Z,29.1870,-90.6093,0.0,5.7,290.0,99.0,'11111222,11111222,11144222' 
LUMCON,ioos:station:LUMCON:102:1,2004-03-10T02:00:00Z,29.1870,-90.6093,0.0,11.8,10.0,99.0,'11111222,11111222,11144222' 
LUMCON,ioos:station:LUMCON:102:1,2004-03-10T03:00:00Z,29.1870,-90.6093,0.0,12.4,10.0,99.0,'11111222,11111222,11144222' 
LUMCON,ioos:station:LUMCON:102:1,2004-03-10T04:00:00Z,29.1870,-90.6093,0.0,12.4,20.0,99.0,'11111222,11111222,11144222' 
LUMCON,ioos:station:LUMCON:102:1,2004-03-10T05:00:00Z,29.1870,-90.6093,0.0,12.4,20.0,99.0,'11111222,11111222,11144222' 